Time,TemperatureF,DewpointF,PressureIn,WindDirection,WindDirectionDegrees,WindSpeedMPH,WindSpeedGustMPH,Humidity,HourlyPrecipIn,Conditions,Clouds,dailyrainin,SoftwareType,DateUTC
2013-03-12 00:02:00,41.0,37.0,30.03,West,260,5.0,-999.0,86,-99.99,,,-99.99,,2013-03-12 05:02:00,
2013-03-12 00:12:00,39.0,36.0,30.03,WNW,290,3.0,-999.0,86,-99.99,,,-99.99,,2013-03-12 05:12:00,
2013-03-12 00:22:00,37.0,37.0,30.04,WNW,290,8.0,-999.0,100,-99.99,,,-99.99,,2013-03-12 05:22:00,
2013-03-12 00:32:00,37.0,36.0,30.04,WNW,290,8.0,-999.0,93,-99.99,,,-99.99,,2013-03-12 05:32:00,
2013-03-12 00:42:00,37.0,36.0,30.04,WNW,290,8.0,-999.0,93,-99.99,,,-99.99,,2013-03-12 05:42:00,
2013-03-12 00:52:00,37.0,36.0,30.04,WNW,290,8.0,-999.0,93,-99.99,,,-99.99,,2013-03-12 05:52:00,
2013-03-12 01:02:00,37.0,36.0,30.04,WNW,290,8.0,-999.0,93,-99.99,,,-99.99,,2013-03-12 06:02:00,
2013-03-12 01:12:00,37.0,37.0,30.05,WNW,300,9.0,-999.0,100,-99.99,,,-99.99,,2013-03-12 06:12:00,
2013-03-12 01:22:00,37.0,37.0,30.05,WNW,300,9.0,-999.0,100,-99.99,,,-99.99,,2013-03-12 06:22:00,
2013-03-12 01:32:00,37.0,37.0,30.05,WNW,300,10.0,-999.0,100,-99.99,,,-99.99,,2013-03-12 06:32:00,
2013-03-12 01:42:00,37.0,37.0,30.06,WNW,300,9.0,-999.0,100,-99.99,,,-99.99,,2013-03-12 06:42:00,
2013-03-12 01:52:00,36.0,36.0,30.05,WNW,290,10.0,-999.0,100,-99.99,,,-99.99,,2013-03-12 06:52:00,
2013-03-12 02:02:00,36.0,36.0,30.05,WNW,290,10.0,-999.0,100,-99.99,,,-99.99,,2013-03-12 07:02:00,
2013-03-12 02:12:00,36.0,36.0,30.06,WNW,300,10.0,-999.0,100,-99.99,,,-99.99,,2013-03-12 07:12:00,
2013-03-12 02:22:00,36.0,36.0,30.07,WNW,300,10.0,-999.0,100,-99.99,,,-99.99,,2013-03-12 07:22:00,
2013-03-12 02:32:00,34.0,34.0,30.08,NW,310,13.0,-999.0,100,-99.99,,,-99.99,,2013-03-12 07:32:00,
2013-03-12 02:42:00,36.0,36.0,30.08,NW,310,12.0,-999.0,100,-99.99,,,-99.99,,2013-03-12 07:42:00,
2013-03-12 02:52:00,34.0,34.0,30.10,WNW,300,9.0,-999.0,100,-99.99,,,-99.99,,2013-03-12 07:52:00,
2013-03-12 03:02:00,34.0,34.0,30.10,WNW,300,9.0,-999.0,100,-99.99,,,-99.99,,2013-03-12 08:02:00,
2013-03-12 03:12:00,34.0,34.0,30.11,NW,310,12.0,-999.0,100,-99.99,,,-99.99,,2013-03-12 08:12:00,
2013-03-12 03:22:00,34.0,34.0,30.11,WNW,300,12.0,-999.0,100,-99.99,,,-99.99,,2013-03-12 08:22:00,
2013-03-12 03:32:00,34.0,34.0,30.12,WNW,290,9.0,-999.0,100,-99.99,,,-99.99,,2013-03-12 08:32:00,
2013-03-12 03:42:00,32.0,32.0,30.12,WNW,290,10.0,-999.0,100,-99.99,,,-99.99,,2013-03-12 08:42:00,
2013-03-12 03:52:00,32.0,32.0,30.12,WNW,290,10.0,-999.0,100,-99.99,,,-99.99,,2013-03-12 08:52:00,
2013-03-12 04:03:00,32.0,32.0,30.12,WNW,290,10.0,-999.0,100,-99.99,,,-99.99,,2013-03-12 09:03:00,
2013-03-12 04:12:00,32.0,32.0,30.12,WNW,290,10.0,-999.0,100,-99.99,,,-99.99,,2013-03-12 09:12:00,
2013-03-12 04:22:00,30.0,30.0,30.11,WNW,290,9.0,-999.0,100,-99.99,,,-99.99,,2013-03-12 09:22:00,
2013-03-12 04:32:00,30.0,30.0,30.12,WNW,290,10.0,-999.0,100,-99.99,,,-99.99,,2013-03-12 09:32:00,
2013-03-12 04:42:00,30.0,30.0,30.12,WNW,290,12.0,-999.0,100,-99.99,,,-99.99,,2013-03-12 09:42:00,
2013-03-12 04:52:00,30.0,30.0,30.12,WNW,300,12.0,-999.0,100,-99.99,,,-99.99,,2013-03-12 09:52:00,
2013-03-12 05:02:00,30.0,30.0,30.12,WNW,300,12.0,-999.0,100,-99.99,,,-99.99,,2013-03-12 10:02:00,
2013-03-12 05:12:00,32.0,32.0,30.13,WNW,300,9.0,-999.0,100,-99.99,,,-99.99,,2013-03-12 10:12:00,
2013-03-12 05:22:00,32.0,32.0,30.14,WNW,290,9.0,-999.0,100,-99.99,,,-99.99,,2013-03-12 10:22:00,
2013-03-12 05:32:00,32.0,32.0,30.15,WNW,290,9.0,-999.0,100,-99.99,,,-99.99,,2013-03-12 10:32:00,
2013-03-12 05:42:00,32.0,32.0,30.15,WNW,290,9.0,-999.0,100,-99.99,,,-99.99,,2013-03-12 10:42:00,
2013-03-12 05:52:00,32.0,32.0,30.16,WNW,290,12.0,-999.0,100,-99.99,,,-99.99,,2013-03-12 10:52:00,
2013-03-12 06:02:00,32.0,32.0,30.16,WNW,290,12.0,-999.0,100,-99.99,,,-99.99,,2013-03-12 11:02:00,
2013-03-12 06:12:00,32.0,32.0,30.16,West,280,9.0,-999.0,100,-99.99,,,-99.99,,2013-03-12 11:12:00,
2013-03-12 06:22:00,34.0,32.0,30.16,West,280,9.0,-999.0,93,-99.99,,,-99.99,,2013-03-12 11:22:00,
2013-03-12 06:32:00,34.0,32.0,30.17,WNW,290,9.0,-999.0,93,-99.99,,,-99.99,,2013-03-12 11:32:00,
2013-03-12 06:42:00,34.0,32.0,30.17,WNW,290,8.0,-999.0,93,-99.99,,,-99.99,,2013-03-12 11:42:00,
2013-03-12 06:52:00,34.0,32.0,30.17,WNW,290,8.0,-999.0,93,-99.99,,,-99.99,,2013-03-12 11:52:00,
2013-03-12 07:02:00,34.0,32.0,30.17,WNW,290,8.0,-999.0,93,-99.99,,,-99.99,,2013-03-12 12:02:00,
2013-03-12 07:12:00,34.0,32.0,30.18,WNW,290,8.0,-999.0,93,-99.99,,,-99.99,,2013-03-12 12:12:00,
2013-03-12 07:22:00,34.0,32.0,30.19,WNW,300,8.0,-999.0,93,-99.99,,,-99.99,,2013-03-12 12:22:00,
2013-03-12 07:32:00,34.0,32.0,30.19,WNW,300,8.0,-999.0,93,-99.99,,,-99.99,,2013-03-12 12:32:00,
2013-03-12 07:42:00,34.0,32.0,30.19,WNW,300,8.0,-999.0,93,-99.99,,,-99.99,,2013-03-12 12:42:00,
2013-03-12 07:52:00,34.0,32.0,30.19,WNW,290,8.0,-999.0,93,-99.99,,,-99.99,,2013-03-12 12:52:00,
2013-03-12 08:02:00,34.0,32.0,30.19,WNW,290,8.0,-999.0,93,-99.99,,,-99.99,,2013-03-12 13:02:00,
2013-03-12 08:12:00,32.0,30.0,30.19,WNW,300,8.0,-999.0,92,-99.99,,,-99.99,,2013-03-12 13:12:00,
2013-03-12 08:22:00,30.0,30.0,30.20,WNW,300,8.0,-999.0,100,-99.99,,,-99.99,,2013-03-12 13:22:00,
2013-03-12 08:32:00,30.0,30.0,30.20,WNW,290,8.0,-999.0,100,-99.99,,,-99.99,,2013-03-12 13:32:00,
2013-03-12 08:42:00,30.0,30.0,30.21,WNW,300,8.0,-999.0,100,-99.99,,,-99.99,,2013-03-12 13:42:00,
2013-03-12 08:52:00,32.0,32.0,30.22,WNW,300,8.0,-999.0,100,-99.99,,,-99.99,,2013-03-12 13:52:00,
2013-03-12 09:02:00,32.0,32.0,30.22,WNW,300,8.0,-999.0,100,-99.99,,,-99.99,,2013-03-12 14:02:00,
2013-03-12 09:12:00,32.0,30.0,30.22,WNW,290,7.0,-999.0,92,-99.99,,,-99.99,,2013-03-12 14:12:00,
2013-03-12 09:22:00,34.0,32.0,30.23,WNW,300,7.0,-999.0,93,-99.99,,,-99.99,,2013-03-12 14:22:00,
2013-03-12 09:32:00,36.0,34.0,30.24,WNW,300,9.0,-999.0,93,-99.99,,,-99.99,,2013-03-12 14:32:00,
2013-03-12 09:42:00,36.0,34.0,30.24,WNW,300,9.0,-999.0,93,-99.99,,,-99.99,,2013-03-12 14:42:00,
2013-03-12 09:52:00,37.0,32.0,30.25,NW,310,10.0,-999.0,80,-99.99,,,-99.99,,2013-03-12 14:52:00,
2013-03-12 10:02:00,37.0,32.0,30.25,NW,310,10.0,-999.0,80,-99.99,,,-99.99,,2013-03-12 15:02:00,
2013-03-12 10:12:00,37.0,32.0,30.25,NNW,330,15.0,-999.0,80,-99.99,,,-99.99,,2013-03-12 15:12:00,
2013-03-12 10:22:00,37.0,28.0,30.26,NW,320,18.0,22.0,69,-99.99,,,-99.99,,2013-03-12 15:22:00,
2013-03-12 10:32:00,37.0,28.0,30.26,NNW,330,16.0,-999.0,69,-99.99,,,-99.99,,2013-03-12 15:32:00,
2013-03-12 10:42:00,39.0,30.0,30.26,NW,320,14.0,21.0,69,-99.99,,,-99.99,,2013-03-12 15:42:00,
2013-03-12 10:52:00,39.0,30.0,30.27,NW,320,13.0,-999.0,69,-99.99,,,-99.99,,2013-03-12 15:52:00,
2013-03-12 11:02:00,39.0,30.0,30.27,NW,320,13.0,-999.0,69,-99.99,,,-99.99,,2013-03-12 16:02:00,
2013-03-12 11:12:00,39.0,30.0,30.27,WNW,300,12.0,21.0,69,-99.99,,,-99.99,,2013-03-12 16:12:00,
2013-03-12 11:22:00,41.0,30.0,30.28,NW,320,12.0,18.0,65,-99.99,,,-99.99,,2013-03-12 16:22:00,
2013-03-12 11:32:00,41.0,30.0,30.28,NW,310,14.0,18.0,65,-99.99,,,-99.99,,2013-03-12 16:32:00,
2013-03-12 11:42:00,41.0,30.0,30.28,NW,320,13.0,-999.0,65,-99.99,,,-99.99,,2013-03-12 16:42:00,
2013-03-12 11:52:00,43.0,30.0,30.28,NW,310,17.0,23.0,60,-99.99,,,-99.99,,2013-03-12 16:52:00,
2013-03-12 12:02:00,43.0,30.0,30.28,NW,310,17.0,23.0,60,-99.99,,,-99.99,,2013-03-12 17:02:00,
2013-03-12 12:12:00,43.0,30.0,30.28,NW,310,16.0,23.0,60,-99.99,,,-99.99,,2013-03-12 17:12:00,
2013-03-12 12:22:00,43.0,28.0,30.28,NW,310,17.0,23.0,56,-99.99,,,-99.99,,2013-03-12 17:22:00,
2013-03-12 12:33:00,45.0,28.0,30.28,WNW,300,21.0,27.0,52,-99.99,,,-99.99,,2013-03-12 17:33:00,
2013-03-12 12:43:00,45.0,28.0,30.28,NW,310,17.0,24.0,52,-99.99,,,-99.99,,2013-03-12 17:43:00,
2013-03-12 12:53:00,45.0,28.0,30.28,NW,310,18.0,-999.0,52,-99.99,,,-99.99,,2013-03-12 17:53:00,
2013-03-12 13:02:00,45.0,28.0,30.28,NW,310,18.0,-999.0,52,-99.99,,,-99.99,,2013-03-12 18:02:00,
2013-03-12 13:12:00,45.0,28.0,30.28,NW,320,18.0,27.0,52,-99.99,,,-99.99,,2013-03-12 18:12:00,
2013-03-12 13:22:00,45.0,28.0,30.27,NW,320,23.0,27.0,52,-99.99,,,-99.99,,2013-03-12 18:22:00,
2013-03-12 13:33:00,46.0,28.0,30.27,NW,310,18.0,29.0,49,-99.99,,,-99.99,,2013-03-12 18:33:00,
2013-03-12 13:42:00,46.0,27.0,30.27,NW,320,18.0,29.0,45,-99.99,,,-99.99,,2013-03-12 18:42:00,
2013-03-12 13:53:00,45.0,27.0,30.27,NW,310,14.0,28.0,48,-99.99,,,-99.99,,2013-03-12 18:53:00,
2013-03-12 14:03:00,45.0,27.0,30.27,NW,310,14.0,28.0,48,-99.99,,,-99.99,,2013-03-12 19:03:00,
2013-03-12 14:13:00,46.0,27.0,30.27,NNW,330,18.0,30.0,45,-99.99,,,-99.99,,2013-03-12 19:13:00,
2013-03-12 14:22:00,48.0,27.0,30.26,NW,310,18.0,38.0,42,-99.99,,,-99.99,,2013-03-12 19:22:00,
2013-03-12 14:33:00,48.0,27.0,30.26,NNW,330,17.0,38.0,42,-99.99,,,-99.99,,2013-03-12 19:33:00,
2013-03-12 14:43:00,48.0,27.0,30.26,WNW,300,15.0,25.0,42,-99.99,,,-99.99,,2013-03-12 19:43:00,
2013-03-12 14:52:00,48.0,25.0,30.25,NW,310,15.0,29.0,39,-99.99,,,-99.99,,2013-03-12 19:52:00,
2013-03-12 15:02:00,48.0,25.0,30.25,NW,310,15.0,29.0,39,-99.99,,,-99.99,,2013-03-12 20:02:00,
2013-03-12 15:12:00,48.0,25.0,30.25,NW,320,16.0,28.0,39,-99.99,,,-99.99,,2013-03-12 20:12:00,
2013-03-12 15:22:00,48.0,25.0,30.24,NW,310,20.0,28.0,39,-99.99,,,-99.99,,2013-03-12 20:22:00,
2013-03-12 15:32:00,48.0,25.0,30.24,WNW,300,18.0,36.0,39,-99.99,,,-99.99,,2013-03-12 20:32:00,
2013-03-12 15:42:00,48.0,25.0,30.24,NW,310,18.0,36.0,39,-99.99,,,-99.99,,2013-03-12 20:42:00,
2013-03-12 15:52:00,48.0,25.0,30.24,NW,310,18.0,33.0,39,-99.99,,,-99.99,,2013-03-12 20:52:00,
2013-03-12 16:02:00,48.0,25.0,30.24,NW,310,18.0,33.0,39,-99.99,,,-99.99,,2013-03-12 21:02:00,
2013-03-12 16:12:00,48.0,23.0,30.24,NW,310,21.0,29.0,36,-99.99,,,-99.99,,2013-03-12 21:12:00,
2013-03-12 16:22:00,50.0,25.0,30.24,NW,320,18.0,29.0,37,-99.99,,,-99.99,,2013-03-12 21:22:00,
2013-03-12 16:32:00,48.0,23.0,30.24,NW,320,21.0,33.0,36,-99.99,,,-99.99,,2013-03-12 21:32:00,
2013-03-12 16:42:00,48.0,23.0,30.24,WNW,300,17.0,31.0,36,-99.99,,,-99.99,,2013-03-12 21:42:00,
2013-03-12 16:52:00,48.0,23.0,30.24,WNW,300,18.0,32.0,36,-99.99,,,-99.99,,2013-03-12 21:52:00,
2013-03-12 17:02:00,48.0,23.0,30.24,WNW,300,18.0,32.0,36,-99.99,,,-99.99,,2013-03-12 22:02:00,
2013-03-12 17:12:00,48.0,25.0,30.24,NW,310,25.0,30.0,39,-99.99,,,-99.99,,2013-03-12 22:12:00,
2013-03-12 17:22:00,48.0,23.0,30.24,NW,310,18.0,25.0,36,-99.99,,,-99.99,,2013-03-12 22:22:00,
2013-03-12 17:33:00,48.0,23.0,30.24,WNW,300,21.0,27.0,36,-99.99,,,-99.99,,2013-03-12 22:33:00,
2013-03-12 17:42:00,48.0,23.0,30.24,NW,320,20.0,25.0,36,-99.99,,,-99.99,,2013-03-12 22:42:00,
2013-03-12 17:52:00,48.0,21.0,30.24,NW,310,20.0,27.0,34,-99.99,,,-99.99,,2013-03-12 22:52:00,
2013-03-12 18:02:00,48.0,21.0,30.24,NW,310,20.0,27.0,34,-99.99,,,-99.99,,2013-03-12 23:02:00,
2013-03-12 18:12:00,48.0,23.0,30.24,NW,310,17.0,23.0,36,-99.99,,,-99.99,,2013-03-12 23:12:00,
2013-03-12 18:22:00,48.0,21.0,30.24,WNW,300,17.0,25.0,34,-99.99,,,-99.99,,2013-03-12 23:22:00,
2013-03-12 18:34:00,46.0,21.0,30.24,NW,320,17.0,23.0,36,-99.99,,,-99.99,,2013-03-12 23:34:00,
2013-03-12 18:43:00,46.0,21.0,30.25,NW,310,15.0,23.0,36,-99.99,,,-99.99,,2013-03-12 23:43:00,
2013-03-12 18:52:00,46.0,21.0,30.24,NNW,330,17.0,24.0,36,-99.99,,,-99.99,,2013-03-12 23:52:00,
2013-03-12 19:02:00,46.0,21.0,30.24,NNW,330,17.0,24.0,36,-99.99,,,-99.99,,2013-03-13 00:02:00,
2013-03-12 19:12:00,45.0,21.0,30.25,NNW,330,15.0,-999.0,39,-99.99,,,-99.99,,2013-03-13 00:12:00,
2013-03-12 19:22:00,45.0,21.0,30.25,NW,320,14.0,-999.0,39,-99.99,,,-99.99,,2013-03-13 00:22:00,
2013-03-12 19:33:00,43.0,21.0,30.25,NNW,330,9.0,-999.0,41,-99.99,,,-99.99,,2013-03-13 00:33:00,
2013-03-12 19:42:00,43.0,21.0,30.25,NNW,330,9.0,-999.0,41,-99.99,,,-99.99,,2013-03-13 00:42:00,
2013-03-12 19:52:00,37.0,19.0,30.26,NNW,330,8.0,-999.0,47,-99.99,,,-99.99,,2013-03-13 00:52:00,
2013-03-12 20:02:00,37.0,19.0,30.26,NNW,330,8.0,-999.0,47,-99.99,,,-99.99,,2013-03-13 01:02:00,
2013-03-12 20:12:00,36.0,19.0,30.26,NNW,340,8.0,-999.0,51,-99.99,,,-99.99,,2013-03-13 01:12:00,
2013-03-12 20:22:00,34.0,19.0,30.27,NNW,340,8.0,-999.0,55,-99.99,,,-99.99,,2013-03-13 01:22:00,
2013-03-12 20:32:00,32.0,19.0,30.27,North,350,7.0,-999.0,59,-99.99,,,-99.99,,2013-03-13 01:32:00,
2013-03-12 20:42:00,30.0,19.0,30.27,North,350,8.0,-999.0,63,-99.99,,,-99.99,,2013-03-13 01:42:00,
2013-03-12 20:52:00,30.0,19.0,30.27,North,10,5.0,-999.0,63,-99.99,,,-99.99,,2013-03-13 01:52:00,
2013-03-12 21:02:00,30.0,19.0,30.27,North,10,5.0,-999.0,63,-99.99,,,-99.99,,2013-03-13 02:02:00,
2013-03-12 21:12:00,30.0,19.0,30.28,North,360,6.0,-999.0,63,-99.99,,,-99.99,,2013-03-13 02:12:00,
2013-03-12 21:22:00,30.0,19.0,30.28,North,10,7.0,-999.0,63,-99.99,,,-99.99,,2013-03-13 02:22:00,
2013-03-12 21:32:00,30.0,19.0,30.29,NNE,20,6.0,-999.0,63,-99.99,,,-99.99,,2013-03-13 02:32:00,
2013-03-12 21:42:00,30.0,19.0,30.29,NNE,20,5.0,-999.0,63,-99.99,,,-99.99,,2013-03-13 02:42:00,
2013-03-12 21:52:00,32.0,18.0,30.29,NNE,20,3.0,-999.0,54,-99.99,,,-99.99,,2013-03-13 02:52:00,
2013-03-12 22:02:00,32.0,18.0,30.29,NNE,20,3.0,-999.0,54,-99.99,,,-99.99,,2013-03-13 03:02:00,
2013-03-12 22:12:00,30.0,18.0,30.29,NNE,20,3.0,-999.0,59,-99.99,,,-99.99,,2013-03-13 03:12:00,
2013-03-12 22:22:00,28.0,18.0,30.29,North,0,0.0,-999.0,63,-99.99,,,-99.99,,2013-03-13 03:22:00,
2013-03-12 22:32:00,28.0,19.0,30.30,SSE,160,3.0,-999.0,68,-99.99,,,-99.99,,2013-03-13 03:32:00,
2013-03-12 22:42:00,28.0,19.0,30.30,North,0,0.0,-999.0,68,-99.99,,,-99.99,,2013-03-13 03:42:00,
2013-03-12 22:52:00,30.0,19.0,30.30,North,0,0.0,-999.0,63,-99.99,,,-99.99,,2013-03-13 03:52:00,
2013-03-12 23:02:00,30.0,19.0,30.30,North,0,0.0,-999.0,63,-99.99,,,-99.99,,2013-03-13 04:02:00,
2013-03-12 23:13:00,28.0,19.0,30.31,North,0,0.0,-999.0,68,-99.99,,,-99.99,,2013-03-13 04:13:00,
2013-03-12 23:22:00,28.0,19.0,30.31,North,0,0.0,-999.0,68,-99.99,,,-99.99,,2013-03-13 04:22:00,
2013-03-12 23:32:00,28.0,19.0,30.31,North,0,0.0,-999.0,68,-99.99,,,-99.99,,2013-03-13 04:32:00,
2013-03-12 23:42:00,28.0,19.0,30.32,North,0,0.0,-999.0,68,-99.99,,,-99.99,,2013-03-13 04:42:00,
2013-03-12 23:52:00,27.0,19.0,30.32,North,0,0.0,-999.0,73,-99.99,,,-99.99,,2013-03-13 04:52:00,